| time (UTC) | temp F | wind direction | speed MPH | gust MPH | rain 1hr in | rain 24hr in | rain mn in | humidity % | barometer mb |
| 20260902140056 | 69 | 132 | 1.0 | 3.0 | 0.00 | 0.77 | 0.77 | 99 | 1016.2 |
| 20260902134557 | 69 | 163 | 1.0 | 3.0 | 0.00 | 0.77 | 0.77 | 99 | 1016.1 |
| 20260902133056 | 70 | 163 | 2.0 | 4.0 | 0.01 | 0.77 | 0.77 | 99 | 1016.0 |
| 20260902131555 | 69 | 155 | 1.0 | 5.0 | 0.35 | 0.77 | 0.77 | 99 | 1015.8 |
| 20260902130051 | 69 | 86 | 0.0 | 2.0 | 0.72 | 0.77 | 0.77 | 99 | 1016.2 |
| 20260902124551 | 68 | 86 | 0.0 | 2.0 | 0.72 | 0.77 | 0.77 | 99 | 1016.5 |
| 20260902123057 | 68 | 44 | 1.0 | 7.0 | 0.72 | 0.76 | 0.76 | 99 | 1016.5 |
| 20260902121548 | 69 | 23 | 6.0 | 20.0 | 0.20 | 0.20 | 0.20 | 98 | 1016.5 |
| 20260902120046 | 69 | 56 | 6.0 | 20.0 | 0.05 | 0.05 | 0.05 | 98 | 1015.9 |
| 20260902114544 | 72 | 351 | 1.0 | 3.0 | 0.05 | 0.05 | 0.05 | 99 | 1014.8 |
| 20260902113038 | 72 | 163 | 0.0 | 4.0 | 0.04 | 0.04 | 0.04 | 100 | 1014.0 |
| 20260902111534 | 71 | 192 | 0.0 | 4.0 | 0.00 | 0.00 | 0.00 | 100 | 1013.8 |
| 20260902110040 | 71 | 186 | 0.0 | 5.0 | 0.00 | 0.00 | 0.00 | 99 | 1014.0 |
| 20260902104527 | 71 | 182 | 1.0 | 5.0 | 0.00 | 0.00 | 0.00 | 99 | 1013.3 |
| 20260902103024 | 71 | 179 | 1.0 | 5.0 | 0.00 | 0.00 | 0.00 | 99 | 1013.5 |
| 20260902101527 | 71 | 179 | 0.0 | 2.0 | 0.00 | 0.00 | 0.00 | 100 | 1013.5 |
| 20260902100021 | 71 | 181 | 1.0 | 4.0 | 0.00 | 0.00 | 0.00 | 99 | 1013.3 |
| 20260902094523 | 71 | 156 | 0.0 | 2.0 | 0.00 | 0.00 | 0.00 | 99 | 1013.7 |
| 20260902093029 | 71 | 156 | 0.0 | 2.0 | 0.00 | 0.00 | 0.00 | 99 | 1014.2 |
| 20260902091517 | 71 | 156 | 0.0 | 5.0 | 0.00 | 0.00 | 0.00 | 99 | 1014.1 |
| 20260902090015 | 71 | 196 | 0.0 | 2.0 | 0.00 | 0.00 | 0.00 | 99 | 1014.1 |
| 20260902084518 | 71 | 200 | 0.0 | 4.0 | 0.00 | 0.02 | 0.00 | 99 | 1014.3 |
| 20260902083006 | 71 | 157 | 1.0 | 6.0 | 0.00 | 0.02 | 0.00 | 99 | 1014.3 |
| 20260902081503 | 70 | 163 | 1.0 | 3.0 | 0.00 | 0.02 | 0.00 | 99 | 1014.7 |
| 20260902080002 | 70 | 146 | 0.0 | 2.0 | 0.00 | 0.03 | 0.00 | 99 | 1015.1 |
| 20260902074501 | 70 | 146 | 0.0 | 0.0 | 0.00 | 0.03 | 0.00 | 99 | 1014.8 |
| 20260902073200 | 69 | 146 | 0.0 | 1.0 | 0.00 | 0.03 | 0.00 | 99 | 1014.9 |
| 20260902071559 | 69 | 140 | 0.0 | 0.0 | 0.00 | 0.03 | 0.00 | 99 | 1015.1 |
| 20260902070059 | 69 | 140 | 0.0 | 0.0 | 0.00 | 0.03 | 0.00 | 99 | 1015.4 |
| 20260902064559 | 70 | 140 | 0.0 | 0.0 | 0.00 | 0.03 | 0.00 | 99 | 1015.3 |
| 20260902063059 | 70 | 140 | 0.0 | 0.0 | 0.00 | 0.03 | 0.00 | 99 | 1015.3 |
| 20260902060101 | 70 | 140 | 0.0 | 0.0 | 0.00 | 0.03 | 0.00 | 99 | 1015.3 |
| 20260902054611 | 70 | 140 | 0.0 | 3.0 | 0.00 | 0.03 | 0.00 | 99 | 1015.5 |
| 20260902053104 | 70 | 139 | 1.0 | 3.0 | 0.00 | 0.03 | 0.00 | 99 | 1015.2 |
| 20260902051554 | 69 | 204 | 0.0 | 1.0 | 0.00 | 0.03 | 0.00 | 99 | 1015.3 |
| 20260902050055 | 69 | 204 | 0.0 | 0.0 | 0.00 | 0.03 | 0.00 | 98 | 1015.4 |
| 20260902044553 | 69 | 204 | 0.0 | 0.0 | 0.00 | 0.04 | 0.00 | 98 | 1015.2 |
| 20260902043049 | 69 | 204 | 0.0 | 0.0 | 0.00 | 0.04 | 0.00 | 98 | 1015.3 |
| 20260902041548 | 70 | 204 | 0.0 | 0.0 | 0.00 | 0.04 | 0.00 | 98 | 1015.1 |
| 20260902040049 | 70 | 204 | 0.0 | 0.0 | 0.00 | 0.04 | 0.00 | 98 | 1015.0 |
| 20260902034544 | 70 | 204 | 0.0 | 0.0 | 0.00 | 0.04 | 0.04 | 98 | 1015.0 |
| 20260902033043 | 71 | 204 | 0.0 | 0.0 | 0.00 | 0.04 | 0.04 | 98 | 1015.1 |
| 20260902031545 | 71 | 204 | 0.0 | 0.0 | 0.00 | 0.04 | 0.04 | 98 | 1014.9 |
| 20260902030042 | 72 | 204 | 0.0 | 0.0 | 0.00 | 0.04 | 0.04 | 98 | 1014.9 |
| 20260902024543 | 72 | 204 | 0.0 | 0.0 | 0.00 | 0.04 | 0.04 | 98 | 1015.0 |
| 20260902023050 | 72 | 204 | 0.0 | 0.0 | 0.00 | 0.04 | 0.04 | 98 | 1015.0 |
| 20260902021541 | 72 | 204 | 0.0 | 0.0 | 0.00 | 0.04 | 0.04 | 97 | 1015.1 |
| 20260902020040 | 72 | 207 | 0.0 | 1.0 | 0.00 | 0.04 | 0.04 | 97 | 1015.1 |
| 20260902014540 | 72 | 207 | 0.0 | 0.0 | 0.00 | 0.08 | 0.04 | 97 | 1015.0 |
| 20260902013048 | 72 | 207 | 0.0 | 0.0 | 0.00 | 0.08 | 0.04 | 96 | 1015.0 |
| 20260902011539 | 73 | 207 | 0.0 | 1.0 | 0.00 | 0.08 | 0.04 | 96 | 1014.9 |
| 20260902010039 | 73 | 207 | 0.0 | 0.0 | 0.00 | 0.08 | 0.04 | 96 | 1014.8 |
| 20260902004538 | 73 | 207 | 0.0 | 0.0 | 0.00 | 0.08 | 0.04 | 95 | 1014.5 |
| 20260902003040 | 74 | 207 | 0.0 | 0.0 | 0.00 | 0.08 | 0.04 | 95 | 1014.4 |
| 20260902001553 | 75 | 207 | 0.0 | 0.0 | 0.00 | 0.08 | 0.04 | 94 | 1014.1 |
| 20260902000040 | 75 | 207 | 0.0 | 0.0 | 0.00 | 0.08 | 0.04 | 93 | 1014.0 |
| 20260901234536 | 77 | 207 | 0.0 | 0.0 | 0.00 | 0.08 | 0.04 | 91 | 1014.0 |
| 20260901233037 | 78 | 207 | 0.0 | 0.0 | 0.00 | 0.08 | 0.04 | 89 | 1013.9 |
| 20260901231538 | 79 | 207 | 0.0 | 0.0 | 0.00 | 0.08 | 0.04 | 87 | 1014.1 |
| 20260901230036 | 80 | 205 | 0.0 | 3.0 | 0.00 | 0.08 | 0.04 | 87 | 1014.3 |
| 20260901224534 | 80 | 253 | 0.0 | 1.0 | 0.00 | 0.08 | 0.04 | 87 | 1014.3 |
| 20260901223036 | 81 | 254 | 0.0 | 3.0 | 0.00 | 0.08 | 0.04 | 85 | 1014.4 |
| 20260901221540 | 82 | 223 | 0.0 | 4.0 | 0.00 | 0.08 | 0.04 | 83 | 1014.4 |
| 20260901220032 | 83 | 209 | 1.0 | 5.0 | 0.00 | 0.08 | 0.04 | 81 | 1014.2 |
| 20260901214532 | 84 | 262 | 0.0 | 2.0 | 0.00 | 0.08 | 0.04 | 80 | 1014.3 |
| 20260901213030 | 84 | 246 | 1.0 | 4.0 | 0.00 | 0.08 | 0.04 | 80 | 1014.3 |
| 20260901211529 | 83 | 198 | 1.0 | 3.0 | 0.00 | 0.08 | 0.04 | 80 | 1014.2 |
| 20260901210029 | 82 | 135 | 1.0 | 3.0 | 0.00 | 0.08 | 0.04 | 83 | 1014.1 |
| 20260901204529 | 82 | 221 | 0.0 | 4.0 | 0.00 | 0.08 | 0.04 | 83 | 1014.2 |
| 20260901203028 | 83 | 193 | 1.0 | 4.0 | 0.00 | 0.08 | 0.04 | 82 | 1014.3 |
| 20260901201526 | 82 | 208 | 0.0 | 3.0 | 0.00 | 0.08 | 0.04 | 84 | 1014.3 |
| 20260901200025 | 82 | 355 | 0.0 | 1.0 | 0.00 | 0.08 | 0.04 | 84 | 1014.6 |
| 20260901194524 | 82 | 360 | 1.0 | 3.0 | 0.00 | 0.10 | 0.04 | 83 | 1014.6 |
| 20260901193026 | 82 | 347 | 0.0 | 3.0 | 0.00 | 0.10 | 0.04 | 84 | 1014.5 |
| 20260901191547 | 82 | 343 | 1.0 | 3.0 | 0.00 | 0.10 | 0.04 | 84 | 1014.5 |
| 20260901190024 | 81 | 318 | 0.0 | 4.0 | 0.00 | 0.10 | 0.04 | 84 | 1014.6 |
| 20260901184522 | 82 | 320 | 1.0 | 5.0 | 0.00 | 0.12 | 0.04 | 84 | 1014.7 |
| 20260901183021 | 82 | 340 | 1.0 | 7.0 | 0.00 | 0.12 | 0.04 | 84 | 1014.7 |
| 20260901181521 | 82 | 9 | 2.0 | 5.0 | 0.00 | 0.12 | 0.04 | 84 | 1014.7 |
| 20260901180020 | 81 | 15 | 0.0 | 8.0 | 0.00 | 0.12 | 0.04 | 84 | 1014.5 |
| 20260901174520 | 82 | 33 | 3.0 | 6.0 | 0.00 | 0.15 | 0.04 | 82 | 1014.4 |
| 20260901173024 | 82 | 341 | 2.0 | 6.0 | 0.00 | 0.15 | 0.04 | 83 | 1014.1 |
| 20260901171523 | 82 | 217 | 1.0 | 4.0 | 0.00 | 0.15 | 0.04 | 81 | 1014.0 |
| 20260901170019 | 82 | 320 | 0.0 | 5.0 | 0.00 | 0.15 | 0.04 | 80 | 1014.0 |
| 20260901164534 | 82 | 289 | 0.0 | 3.0 | 0.00 | 0.15 | 0.04 | 82 | 1014.2 |
| 20260901163016 | 82 | 165 | 0.0 | 3.0 | 0.00 | 0.15 | 0.04 | 82 | 1014.2 |
| 20260901161532 | 82 | 96 | 0.0 | 4.0 | 0.00 | 0.15 | 0.04 | 82 | 1014.1 |
| 20260901160012 | 81 | 331 | 1.0 | 6.0 | 0.00 | 0.15 | 0.04 | 83 | 1014.2 |
| 20260901154510 | 81 | 305 | 0.0 | 3.0 | 0.00 | 0.15 | 0.04 | 83 | 1014.0 |
| 20260901153007 | 80 | 189 | 1.0 | 5.0 | 0.00 | 0.15 | 0.04 | 83 | 1014.2 |
| 20260901151506 | 80 | 236 | 1.0 | 5.0 | 0.00 | 0.15 | 0.04 | 84 | 1014.1 |
| 20260901150004 | 79 | 296 | 0.0 | 3.0 | 0.00 | 0.16 | 0.04 | 84 | 1014.0 |
| 20260901144501 | 79 | 234 | 0.0 | 2.0 | 0.00 | 0.16 | 0.04 | 86 | 1013.9 |
| 20260901143100 | 78 | 319 | 0.0 | 3.0 | 0.00 | 0.16 | 0.04 | 87 | 1014.0 |
| 20260901141557 | 78 | 310 | 0.0 | 3.0 | 0.00 | 0.16 | 0.04 | 88 | 1014.1 |